Weather History for Nebraska City, NE

Change the Weather History Date:

Wednesday, October 30, 2013

  Actual Average (KSDA) Record (KSDA)
Temperature  
Mean Temperature 51 °F -  
Max Temperature 58 °F 58 °F 84 °F (1950)
Min Temperature 44 °F 39 °F 21 °F (1988)
Degree Days  
Heating Degree Days 14    
Growing Degree Days 1 (Base 50)    
Moisture  
Dew Point 53 °F    
Average Humidity 100    
Maximum Humidity 100    
Minimum Humidity 100    
Precipitation  
Precipitation 0.15 in - - ()
Sea Level Pressure  
Sea Level Pressure 29.85 in    
Wind  
Wind Speed 4 mph (NW)    
Max Wind Speed 17 mph    
Max Gust Speed 20 mph    
Visibility 4 miles    
Events Fog , Rain , Thunderstorm    
Averages and records for this station are not official NWS values.
T = Trace of Precipitation, MM = Missing Value Source: NWS Daily Summary

Daily Weather History Graph

Daily Weather History Graph

Search for Another Location

Airport:

Trip Planner

Search our weather history database for the weather conditions in past years. The results will help you decide how hot, cold, wet, or windy it might be!

Date:

Astronomy

Oct. 30, 2013 Rise Set
Actual Time 7:51 AM CDT 6:22 PM CDT
Civil Twilight 7:23 AM CDT 6:50 PM CDT
Nautical Twilight 6:51 AM CDT 7:22 PM CDT
Astronomical Twilight 6:19 AM CDT 7:54 PM CDT
Moon 3:40 AM CDT (10/30) 4:08 PM CDT (10/30)
Length of Visible Light 11h 26m
Length of Day
10h 30m
Waning Crescent, 17% of the Moon is Illuminated
Oct 30
Waning Crescent
Nov 3
New
Nov 9
First Quarter
Nov 17
Full
Nov 25
Last Quarter

Hourly Weather History & Observations

Time (CDT) Temp. Windchill Dew Point Humidity Pressure Visibility Wind Dir Wind Speed Gust Speed Precip Events Conditions
12:15 AM 57.7 °F - 57.7 °F 100% 29.95 in 0.2 mi SSE 4.6 mph - N/A Fog Fog
12:35 AM 57.6 °F - 57.6 °F 100% 29.95 in 0.2 mi South 3.5 mph - N/A Fog Fog
12:55 AM 57.6 °F - 57.6 °F 100% 29.95 in 0.2 mi South 4.6 mph - N/A Fog Fog
1:15 AM 57.6 °F - 57.6 °F 100% 29.94 in 0.2 mi South 3.5 mph - N/A Fog Fog
1:35 AM 57.6 °F - 57.6 °F 100% 29.94 in 0.2 mi South 4.6 mph - N/A Fog Fog
1:55 AM 58.1 °F - 58.1 °F 100% 29.94 in 0.2 mi South 6.9 mph - N/A Fog Fog
2:15 AM 58.1 °F - 58.1 °F 100% 29.94 in 0.5 mi South 5.8 mph - N/A Fog Fog
2:35 AM 57.7 °F - 57.7 °F 100% 29.94 in 1.0 mi South 4.6 mph - N/A   Overcast
2:55 AM 57.4 °F - 57.4 °F 100% 29.93 in 1.2 mi South 4.6 mph - N/A   Overcast
3:15 AM 57.2 °F - 57.2 °F 100% 29.93 in 1.5 mi SW 5.8 mph - N/A   Overcast
3:35 AM 57.2 °F - 57.2 °F 100% 29.93 in 2.0 mi WSW 6.9 mph - N/A   Overcast
3:55 AM 57.0 °F - 57.0 °F 100% 29.92 in 2.0 mi West 4.6 mph - N/A   Overcast
4:15 AM 55.4 °F - 55.4 °F 100% 29.92 in 0.5 mi NW 3.5 mph - N/A Fog Fog
4:35 AM 54.5 °F - 54.5 °F 100% 29.92 in 0.2 mi NNW 3.5 mph - N/A Fog Fog
4:55 AM 54.5 °F - 54.5 °F 100% 29.92 in 0.2 mi Calm Calm - N/A Fog Fog
5:15 AM 54.0 °F - 54.0 °F 100% 29.92 in 0.2 mi Calm Calm - N/A Rain , Thunderstorm Light Thunderstorms and Rain
5:35 AM 53.8 °F - 53.8 °F 100% 29.93 in 0.2 mi Calm Calm - N/A Rain , Thunderstorm Light Thunderstorms and Rain
5:55 AM 53.6 °F - 53.6 °F 100% 29.92 in 0.2 mi WNW 3.5 mph - N/A Thunderstorm Unknown
6:15 AM 53.6 °F - 53.6 °F 100% 29.91 in 0.2 mi Calm Calm - 0.01 in Rain , Thunderstorm Thunderstorms and Rain
6:35 AM 52.5 °F - 52.5 °F 100% 29.90 in 0.2 mi WNW 3.5 mph - 0.02 in Rain , Thunderstorm Light Thunderstorms and Rain
6:55 AM 52.0 °F - 52.0 °F 100% 29.89 in 0.2 mi Calm Calm - 0.02 in Fog , Thunderstorm Fog
7:15 AM 51.8 °F - 51.8 °F 100% 29.88 in 0.2 mi Calm Calm - N/A Fog Fog
7:35 AM 51.8 °F - 51.8 °F 100% 29.88 in 0.2 mi Calm Calm - N/A Fog Fog
7:55 AM 51.8 °F - 51.8 °F 100% 29.87 in 0.5 mi Calm Calm - N/A Fog Fog
8:15 AM 52.0 °F - 52.0 °F 100% 29.85 in 0.5 mi Calm Calm - N/A Fog , Thunderstorm Fog
8:35 AM 51.8 °F - 51.8 °F 100% 29.85 in 0.5 mi WNW 6.9 mph - N/A Fog , Thunderstorm Fog
8:55 AM 50.9 °F - 50.9 °F 100% 29.86 in 0.8 mi NNW 6.9 mph - N/A Thunderstorm Overcast
9:15 AM 50.7 °F - 50.7 °F 100% 29.91 in 1.2 mi WNW 17.3 mph - 0.03 in Rain , Thunderstorm Heavy Thunderstorms and Rain
9:35 AM 48.7 °F - 48.7 °F 100% 29.90 in 5.0 mi North 13.8 mph 19.6 mph 0.09 in Rain , Thunderstorm Thunderstorms and Rain
9:55 AM 49.1 °F - 49.1 °F 100% 29.88 in 3.0 mi NE 8.1 mph - 0.13 in Rain , Thunderstorm Thunderstorms and Rain
10:15 AM 50.2 °F - 50.2 °F 100% 29.86 in 4.0 mi East 6.9 mph - N/A Thunderstorm Overcast
10:35 AM 51.1 °F - 51.1 °F 100% 29.86 in 7.0 mi East 3.5 mph - N/A Thunderstorm Thunderstorm
10:55 AM 51.3 °F - 51.3 °F 100% 29.88 in 7.0 mi SW 3.5 mph - N/A   Overcast
11:15 AM 51.8 °F - 51.8 °F 100% 29.86 in 7.0 mi Calm Calm - N/A   Light Drizzle
11:35 AM 53.1 °F - 53.1 °F 100% 29.86 in 10.0 mi WNW 4.6 mph - N/A   Overcast
11:55 AM 53.6 °F - 53.6 °F 100% 29.87 in 10.0 mi Calm Calm - N/A   Overcast
12:15 PM 54.0 °F - 54.0 °F 100% 29.86 in 10.0 mi Calm Calm - N/A Thunderstorm Overcast
12:35 PM 54.3 °F - 54.3 °F 100% 29.85 in 10.0 mi Calm Calm - N/A   Overcast
12:55 PM 54.9 °F - 54.9 °F 100% 29.85 in 10.0 mi Calm Calm - N/A   Overcast
1:15 PM 55.8 °F - 55.8 °F 100% 29.82 in 10.0 mi Calm Calm - N/A   Overcast
1:35 PM 56.3 °F - 56.3 °F 100% 29.81 in 10.0 mi Calm Calm - N/A Thunderstorm Overcast
1:55 PM 57.0 °F - 57.0 °F 100% 29.79 in 10.0 mi Calm Calm - N/A Thunderstorm Overcast
2:15 PM 57.2 °F - 57.2 °F 100% 29.79 in 10.0 mi Calm Calm - N/A Thunderstorm Overcast
2:35 PM 57.4 °F - 57.4 °F 100% 29.79 in 10.0 mi Calm Calm - N/A   Overcast
2:55 PM 58.1 °F - 58.1 °F 100% 29.77 in 10.0 mi Calm Calm - N/A   Overcast
3:15 PM 58.1 °F - 58.1 °F 100% 29.78 in 10.0 mi Calm Calm - N/A   Overcast
3:35 PM 58.3 °F - 58.3 °F 100% 29.78 in 10.0 mi West 5.8 mph - N/A   Overcast
3:55 PM 58.3 °F - 58.3 °F 100% 29.76 in 10.0 mi NW 4.6 mph - N/A   Overcast
4:15 PM 58.5 °F - 58.5 °F 100% 29.76 in 10.0 mi NW 4.6 mph - N/A   Overcast
4:35 PM 58.3 °F - 58.3 °F 100% 29.76 in 5.0 mi WNW 4.6 mph - N/A   Overcast
4:55 PM 57.9 °F - 57.9 °F 100% 29.75 in 2.5 mi WNW 4.6 mph - N/A   Overcast
5:15 PM 57.4 °F - 57.4 °F 100% 29.75 in 2.0 mi NW 8.1 mph - N/A   Overcast
5:35 PM 56.3 °F - 56.3 °F 100% 29.75 in 1.2 mi NNW 8.1 mph - N/A   Overcast
5:55 PM 54.7 °F - 54.7 °F 100% 29.76 in 1.2 mi NW 9.2 mph - N/A Rain Rain
6:15 PM 53.8 °F - 53.8 °F 100% 29.74 in 1.8 mi North 6.9 mph - N/A   Light Drizzle
7:55 PM 49.1 °F - 49.1 °F 100% 29.77 in 2.5 mi NNW 8.1 mph - N/A   Overcast
8:15 PM 48.2 °F - 48.2 °F 100% 29.77 in 1.8 mi North 8.1 mph - N/A   Overcast
8:35 PM 48.0 °F - 48.0 °F 100% 29.77 in 1.8 mi North 6.9 mph - N/A   Overcast
8:55 PM 47.5 °F - 47.5 °F 100% 29.77 in 1.8 mi NNW 8.1 mph - N/A   Overcast
9:15 PM 46.9 °F - 46.9 °F 100% 29.77 in 1.8 mi NNW 8.1 mph - N/A   Overcast
9:35 PM 46.9 °F - 46.9 °F 100% 29.77 in 1.8 mi NW 9.2 mph - N/A   Overcast
9:55 PM 46.6 °F - 46.6 °F 100% 29.77 in 2.0 mi NNW 10.4 mph - N/A   Overcast
10:15 PM 46.4 °F 41.1 °F 46.4 °F 100% 29.78 in 2.0 mi NW 11.5 mph 16.1 mph N/A   Overcast
10:35 PM 45.5 °F 40.3 °F 45.5 °F 100% 29.78 in 3.0 mi NW 10.4 mph - N/A   Overcast
10:55 PM 45.1 °F 39.9 °F 45.1 °F 100% 29.77 in 4.0 mi NNW 10.4 mph - N/A   Overcast
11:15 PM 45.0 °F 40.1 °F 45.0 °F 100% 29.78 in 5.0 mi NW 9.2 mph - N/A   Overcast
11:35 PM 44.6 °F 38.8 °F 44.6 °F 100% 29.78 in 7.0 mi NNW 11.5 mph 17.3 mph N/A   Overcast
11:55 PM 44.6 °F 38.8 °F 44.6 °F 100% 29.77 in 7.0 mi NNW 11.5 mph - N/A   Overcast